Location: Barcelona
(41.3830°N, 2.1830°E)
Time: 07:25:55
(UTC+01:00)

ISS - Pass Details

Date: 29 November 2020
Orbit: 418 x 420 km, 51.6° (Epoch: 04 December)

Event Time Altitude Azimuth Distance (km) Brightness Sun altitude
Rises 18:59:40 0° 301° (WNW) 2,363 0.8 -17.7°
Reaches altitude 10° 19:02:30 10° 327° (NNW) 1,499 -0.7 -18.2°
Enters shadow 19:04:11 14° 357° (N) 1,266 -1.4 -18.5°
